Retour au catalogue

EXPRESS 80

ActifCommunicationsGEO
NORAD 45986·PAYLOAD·🇷🇺 Russia

Lancé Jul 30, 2020 depuis Baikonur Cosmodrome

Loading…

TLE

FraisSource: Space-Track

Époque: Sep 14, 2026, 14:10 UTC

1 45986U 20053B   26257.59096108  .00000000  00000-0  00000-0 0  9992
2 45986   0.0175 173.1544 0001926 234.4895 238.6510  1.00270223 22539

Suivez EXPRESS 80 en temps réel avec AllMySat

Download on the App Store